User: anonymous   Login
Location: Unspecified
(0.0000°N, 0.0000°E)
Time: 01:52:53
(UTC+00:00)
Language:

STARLINK-3947 - Orbit

View from above orbital plane
View from above orbital plane
View from above satellite
View from above satellite

Ground track
Ground track

The orbit is defined by the following mean orbital elements,

1 52607U          26145.45614639 +.00000000 +00000-0 +49124-4 0 00003
2 52607  53.2130 299.5113 0001203  87.4402 272.6728 15.08840061    04
Epoch (UTC): 25 May 2026 10:56:51
Eccentricity: 0.0001203
inclination: 53.2130°
perigee height: 539 km
apogee height: 541 km
right ascension of ascending node: 299.5113°
argument of perigee: 87.4402°
revolutions per day: 15.08840061
mean anomaly at epoch: 272.6728°

The dashed part of the orbit path shows where the satellite is in the earth's shadow,  

DLR